KF6YUA Weather Reports


time (UTC)temp
C
wind
direction
speed
KPH
gust
KPH
rain 1hr
cm
rain 24hr
cm
rain mn
cm
humidity
%
barometer
mb
20260506150011 13 165 0.0 0.0 0.00 0.00 0.00 92 1022.9
20260506145508 13 165 0.0 0.0 0.00 0.00 0.00 93 1022.8
20260506145005 13 165 0.0 0.0 0.00 0.00 0.00 93 1022.7
20260506144502 13 165 0.0 0.0 0.00 0.00 0.00 94 1022.8
20260506144000 13 165 0.0 0.0 0.00 0.00 0.00 94 1022.8
20260506143456 13 165 0.0 0.0 0.00 0.00 0.00 94 1022.6
20260506142955 13 165 0.0 0.0 0.00 0.00 0.00 94 1022.8
20260506142452 12 165 0.0 0.0 0.00 0.00 0.00 95 1022.4
20260506141950 12 165 0.0 0.0 0.00 0.00 0.00 95 1022.4
20260506141448 12 165 0.0 0.0 0.00 0.00 0.00 95 1022.5
20260506140947 12 165 0.0 0.0 0.00 0.00 0.00 96 1022.5
20260506140443 12 165 0.0 0.0 0.00 0.00 0.00 96 1022.6
20260506135939 12 165 0.0 0.0 0.00 0.00 0.00 96 1022.3
20260506135437 12 165 0.0 0.0 0.00 0.00 0.00 96 1022.4
20260506134933 12 165 0.0 0.0 0.00 0.00 0.00 96 1022.5
20260506134429 12 165 0.0 0.0 0.00 0.00 0.00 96 1022.5
20260506133926 12 165 0.0 0.0 0.00 0.00 0.00 96 1022.3
20260506133423 12 165 0.0 0.0 0.00 0.00 0.00 96 1022.5
20260506132920 12 165 0.0 0.0 0.00 0.00 0.00 96 1022.5
20260506132417 12 145 0.0 0.0 0.00 0.00 0.00 96 1022.4
20260506131915 12 145 0.0 0.0 0.00 0.00 0.00 96 1022.4
20260506131411 12 145 0.0 0.0 0.00 0.00 0.00 96 1022.1
20260506130908 12 145 0.0 0.0 0.00 0.00 0.00 96 1022.1
20260506130404 12 145 0.0 0.0 0.00 0.00 0.00 96 1022.1
20260506125902 12 145 0.0 0.0 0.00 0.00 0.00 96 1022.2
20260506125401 12 145 0.0 0.0 0.00 0.00 0.00 96 1022.0
20260506124858 12 145 0.0 0.0 0.00 0.00 0.00 96 1022.1
20260506124355 12 145 0.0 0.0 0.00 0.00 0.00 96 1021.7
20260506123853 12 145 0.0 1.6 0.00 0.00 0.00 96 1022.0
20260506123351 12 151 0.0 0.0 0.00 0.00 0.00 96 1022.0
20260506122848 12 151 0.0 0.0 0.00 0.00 0.00 96 1021.8
20260506122345 12 160 0.0 1.6 0.00 0.00 0.00 96 1021.8
20260506121843 12 114 0.0 0.0 0.00 0.00 0.00 96 1022.0
20260506121340 12 114 0.0 0.0 0.00 0.00 0.00 96 1022.0
20260506120837 12 114 0.0 0.0 0.00 0.00 0.00 96 1021.7
20260506120335 12 114 0.0 0.0 0.00 0.00 0.00 96 1021.7
20260506115832 12 114 0.0 0.0 0.00 0.00 0.00 96 1021.8
20260506115330 12 114 0.0 0.0 0.00 0.00 0.00 96 1021.8
20260506114828 12 114 0.0 0.0 0.00 0.00 0.00 96 1021.7
20260506114325 12 114 0.0 0.0 0.00 0.00 0.00 96 1021.6
20260506113824 12 114 0.0 0.0 0.00 0.00 0.00 96 1021.8
20260506113321 12 114 0.0 0.0 0.00 0.00 0.00 96 1021.6
20260506112817 12 114 0.0 0.0 0.00 0.00 0.00 96 1021.7
20260506112315 12 114 0.0 0.0 0.00 0.00 0.00 96 1021.6
20260506111812 12 114 0.0 0.0 0.00 0.00 0.00 96 1021.6
20260506111310 12 114 0.0 0.0 0.00 0.00 0.00 96 1022.0
20260506110807 12 114 0.0 0.0 0.00 0.00 0.00 96 1021.4
20260506110304 12 114 0.0 0.0 0.00 0.00 0.00 96 1021.4
20260506105800 12 114 0.0 0.0 0.00 0.00 0.00 96 1021.6
20260506105257 12 114 0.0 0.0 0.00 0.00 0.00 96 1021.2
20260506104755 12 114 0.0 0.0 0.00 0.00 0.00 96 1021.5
20260506104253 12 114 0.0 0.0 0.00 0.00 0.00 96 1021.5
20260506103750 12 114 0.0 0.0 0.00 0.00 0.00 96 1021.3
20260506103247 12 114 0.0 1.6 0.00 0.00 0.00 96 1021.4
20260506102745 12 99 0.0 1.6 0.00 0.00 0.00 96 1021.1
20260506102243 12 106 0.0 0.0 0.00 0.00 0.00 96 1021.2
20260506101739 12 106 0.0 0.0 0.00 0.00 0.00 96 1021.2
20260506101236 12 81 0.0 0.0 0.00 0.00 0.00 96 1021.1
20260506100734 12 90 0.0 0.0 0.00 0.00 0.00 96 1021.1
20260506100232 12 90 0.0 0.0 0.00 0.00 0.00 96 1021.2
20260506095730 12 90 0.0 0.0 0.00 0.00 0.00 95 1021.1
20260506095226 12 90 0.0 0.0 0.00 0.00 0.00 95 1021.0
20260506094723 12 99 0.0 0.0 0.00 0.00 0.00 95 1021.2
20260506094221 12 99 0.0 0.0 0.00 0.00 0.00 95 1021.2
20260506093720 12 99 0.0 0.0 0.00 0.00 0.00 95 1021.0
20260506093216 12 99 0.0 0.0 0.00 0.00 0.00 95 1021.1
20260506092714 12 99 0.0 0.0 0.00 0.00 0.00 95 1021.1
20260506092212 12 99 0.0 1.6 0.00 0.00 0.00 95 1021.1
20260506091709 12 106 0.0 0.0 0.00 0.00 0.00 95 1021.2
20260506091206 12 106 0.0 0.0 0.00 0.00 0.00 95 1021.2
20260506090704 12 106 0.0 0.0 0.00 0.00 0.00 95 1021.2
20260506090201 12 106 0.0 0.0 0.00 0.00 0.00 95 1020.9
20260506085658 12 106 0.0 0.0 0.00 0.00 0.00 95 1021.2
20260506085153 12 106 0.0 1.6 0.00 0.00 0.00 95 1021.2
20260506084651 12 99 0.0 0.0 0.00 0.00 0.00 95 1021.2
20260506084147 12 99 0.0 0.0 0.00 0.00 0.00 95 1021.1
20260506083644 12 99 0.0 0.0 0.00 0.00 0.00 95 1021.2
20260506083142 12 99 0.0 0.0 0.00 0.00 0.00 95 1021.0
20260506082639 12 99 0.0 0.0 0.00 0.00 0.00 95 1021.4
20260506082134 12 99 0.0 0.0 0.00 0.00 0.00 95 1021.0
20260506081632 12 99 0.0 0.0 0.00 0.00 0.00 95 1021.1
20260506081130 12 99 0.0 0.0 0.00 0.00 0.00 95 1021.1
20260506080627 12 99 0.0 0.0 0.00 0.00 0.00 95 1021.0
20260506080124 12 99 0.0 0.0 0.00 0.00 0.00 95 1021.1
20260506073108 12 187 0.0 0.0 0.00 0.00 0.00 95 1020.8
20260506072604 12 120 0.0 3.2 0.00 0.00 0.00 95 1020.8
20260506072102 12 114 0.0 1.6 0.00 0.00 0.00 95 1020.5
20260506071559 11 157 0.0 0.0 0.00 0.00 0.00 96 1020.5
20260506071057 11 90 0.0 0.0 0.00 0.00 0.00 96 1020.4
20260506070554 11 114 0.0 0.0 0.00 0.00 0.00 96 1020.4
20260506062028 12 106 0.0 0.0 0.00 0.18 0.18 94 1020.3
20260506061524 12 106 0.0 0.0 0.00 0.18 0.18 94 1020.2
20260506061022 12 99 0.0 0.0 0.00 0.18 0.18 94 1020.3
20260506060520 12 172 0.0 1.6 0.00 0.18 0.18 94 1020.2
20260506050949 12 170 0.0 3.2 0.00 0.18 0.18 93 1019.8
20260506050446 12 148 0.0 1.6 0.00 0.18 0.18 93 1019.6
20260506044937 12 145 1.6 3.2 0.00 0.18 0.18 93 1019.5
20260506044435 12 198 0.0 4.8 0.00 0.18 0.18 93 1019.5
20260506043931 12 135 0.0 3.2 0.00 0.18 0.18 93 1019.3
20260506043429 12 173 1.6 3.2 0.00 0.18 0.18 93 1019.5
20260506042927 12 145 0.0 3.2 0.00 0.18 0.18 93 1019.2
20260506042426 12 131 0.0 3.2 0.00 0.18 0.18 93 1019.2
20260506041924 12 151 0.0 3.2 0.00 0.18 0.18 93 1019.1
20260506041421 12 145 0.0 3.2 0.00 0.18 0.18 93 1019.2
20260506040918 12 145 0.0 3.2 0.00 0.18 0.18 93 1019.0
20260506040415 12 154 1.6 3.2 0.00 0.18 0.18 93 1019.0
20260506035911 12 165 0.0 1.6 0.00 0.18 0.18 93 1018.8
20260506035409 12 145 0.0 1.6 0.00 0.18 0.18 93 1018.9
20260506034906 12 157 0.0 1.6 0.00 0.18 0.18 92 1018.8
20260506034403 12 117 0.0 3.2 0.00 0.18 0.18 92 1018.9
20260506033900 12 99 0.0 0.0 0.00 0.18 0.18 91 1018.6
20260506033357 12 99 0.0 0.0 0.00 0.18 0.18 91 1018.5
20260506032854 13 105 1.6 1.6 0.00 0.18 0.18 90 1018.7
20260506032350 13 90 0.0 3.2 0.00 0.18 0.18 89 1018.3
20260506031847 13 151 0.0 3.2 0.00 0.18 0.18 87 1018.2
20260506031345 13 175 0.0 0.0 0.00 0.18 0.18 87 1018.2
20260506030842 13 157 0.0 0.0 0.00 0.18 0.18 86 1018.0
20260506030340 13 157 0.0 3.2 0.00 0.18 0.18 85 1017.8
20260506025837 14 90 0.0 0.0 0.00 0.18 0.18 85 1018.0
20260506025333 14 157 0.0 4.8 0.00 0.18 0.18 84 1018.0
20260506024830 14 114 0.0 1.6 0.00 0.18 0.18 84 1018.0
20260506024327 14 159 0.0 3.2 0.00 0.18 0.18 83 1017.9
20260506023823 14 105 0.0 3.2 0.00 0.18 0.18 83 1017.9
20260506023320 14 168 0.0 0.0 0.00 0.18 0.18 83 1017.8
20260506022817 14 206 3.2 3.2 0.00 0.18 0.18 82 1017.6
20260506022315 14 166 0.0 0.0 0.00 0.18 0.18 83 1017.8
20260506021813 15 157 0.0 0.0 0.00 0.18 0.18 83 1017.8
20260506021309 14 180 0.0 0.0 0.00 0.18 0.18 82 1017.6
20260506020806 14 151 0.0 4.8 0.00 0.18 0.18 82 1017.6
20260506020304 15 219 6.4 6.4 0.00 0.18 0.18 82 1017.6
20260506015801 15 109 0.0 1.6 0.00 0.18 0.18 81 1017.6
20260506015259 15 151 0.0 3.2 0.00 0.18 0.18 81 1017.7
20260506014755 15 157 0.0 8.0 0.00 0.18 0.18 81 1017.6
20260506014252 15 161 3.2 4.8 0.00 0.18 0.18 80 1017.4
20260506013749 15 180 0.0 6.4 0.00 0.18 0.18 80 1017.4
20260506013246 15 164 0.0 3.2 0.00 0.18 0.18 80 1017.5
20260506012743 15 144 0.0 4.8 0.00 0.18 0.18 80 1017.4
20260506012239 15 202 11.3 11.3 0.00 0.18 0.18 79 1017.6
20260506011737 15 178 4.8 8.0 0.00 0.18 0.18 79 1017.4
20260506011233 15 169 3.2 4.8 0.00 0.18 0.18 78 1017.4
20260506010732 15 145 0.0 3.2 0.00 0.18 0.18 78 1017.5
20260506010228 15 191 0.0 3.2 0.00 0.18 0.18 78 1017.4
20260506005726 15 192 1.6 8.0 0.00 0.18 0.18 78 1017.3
20260506005222 16 162 0.0 3.2 0.00 0.18 0.18 77 1017.5
20260506004718 16 145 0.0 3.2 0.00 0.18 0.18 79 1017.5
20260506004216 15 172 0.0 8.0 0.00 0.18 0.18 78 1017.6
20260506003712 15 173 1.6 8.0 0.00 0.18 0.18 79 1017.2
20260506003208 16 217 8.0 8.0 0.00 0.18 0.18 76 1017.2
20260506002704 16 215 0.0 4.8 0.00 0.18 0.18 77 1017.3
20260506002200 16 190 3.2 8.0 0.00 0.18 0.18 77 1017.3
20260506001656 16 187 0.0 3.2 0.00 0.18 0.18 77 1017.3
20260506001154 16 188 3.2 4.8 0.00 0.18 0.18 76 1017.0
20260506000651 16 165 0.0 3.2 0.00 0.18 0.18 77 1017.2
20260506000148 16 183 4.8 4.8 0.00 0.18 0.18 75 1017.0
20260505235646 16 166 1.6 12.9 0.00 0.18 0.18 77 1017.0
20260505235143 16 151 1.6 6.4 0.00 0.18 0.18 76 1017.2
20260505234640 16 196 3.2 8.0 0.00 0.18 0.18 74 1017.2
20260505234137 17 90 0.0 3.2 0.00 0.18 0.18 74 1017.2
20260505233634 17 180 0.0 6.4 0.00 0.18 0.18 74 1017.3
20260505233132 16 180 1.6 8.0 0.00 0.18 0.18 76 1017.2
20260505232629 16 177 8.0 11.3 0.00 0.18 0.18 75 1017.2
20260505232126 17 96 0.0 3.2 0.00 0.18 0.18 76 1017.0
20260505231623 16 186 4.8 17.7 0.00 0.18 0.18 75 1017.3
20260505231122 16 247 8.0 9.7 0.00 0.18 0.18 75 1017.1
20260505230620 17 190 4.8 4.8 0.00 0.18 0.18 74 1017.2
20260505230115 18 176 6.4 6.4 0.00 0.18 0.18 71 1017.1
20260505225612 18 144 3.2 3.2 0.00 0.18 0.18 74 1017.2
20260505225108 17 145 0.0 4.8 0.00 0.18 0.18 74 1017.3
20260505224605 17 96 0.0 4.8 0.00 0.18 0.18 75 1017.3
20260505224103 17 107 0.0 4.8 0.00 0.18 0.18 75 1017.2
20260505223600 17 90 3.2 8.0 0.00 0.18 0.18 75 1017.5
20260505223056 17 206 4.8 11.3 0.00 0.18 0.18 74 1017.3
20260505222552 18 161 0.0 8.0 0.00 0.18 0.18 73 1017.3
20260505222048 18 180 0.0 3.2 0.00 0.18 0.18 74 1017.4
20260505221546 18 169 0.0 9.7 0.00 0.18 0.18 75 1017.5
20260505221042 18 145 0.0 4.8 0.00 0.18 0.18 75 1017.3
20260505220539 18 180 3.2 6.4 0.00 0.18 0.18 74 1017.3
20260505220037 18 180 1.6 6.4 0.00 0.18 0.18 74 1017.2
20260505215535 18 165 0.0 6.4 0.00 0.18 0.18 73 1017.4
20260505215032 18 57 0.0 4.8 0.00 0.18 0.18 74 1017.6
20260505214530 18 180 1.6 6.4 0.00 0.18 0.18 73 1017.5
20260505214027 18 151 0.0 4.8 0.00 0.18 0.18 72 1017.4
20260505213525 18 157 1.6 3.2 0.00 0.18 0.18 72 1017.5
20260505213021 18 172 0.0 3.2 0.00 0.18 0.18 76 1017.5
20260505212517 17 165 0.0 6.4 0.00 0.18 0.18 74 1017.6
20260505212015 18 176 3.2 3.2 0.00 0.18 0.18 73 1017.7
20260505211512 18 160 0.0 4.8 0.00 0.18 0.18 76 1017.6
20260505211008 18 126 0.0 1.6 0.00 0.18 0.18 76 1017.7
20260505210505 17 157 4.8 4.8 0.00 0.18 0.18 75 1017.6
20260505210002 17 160 0.0 3.2 0.00 0.18 0.18 75 1017.8
20260505205500 17 160 0.0 4.8 0.00 0.18 0.18 76 1017.7
20260505204956 17 194 3.2 4.8 0.00 0.18 0.18 76 1017.9
20260505204455 17 168 1.6 3.2 0.00 0.18 0.18 75 1017.8
20260505203952 17 194 1.6 4.8 0.00 0.18 0.18 77 1017.9
20260505203448 17 189 0.0 3.2 0.00 0.18 0.18 76 1017.8
20260505202944 17 90 0.0 3.2 0.00 0.18 0.18 78 1017.8
20260505202441 16 165 0.0 4.8 0.00 0.18 0.18 77 1017.7
20260505201937 17 180 0.0 0.0 0.00 0.18 0.18 76 1017.8
20260505201434 16 165 3.2 3.2 0.00 0.18 0.18 76 1017.9
20260505200932 17 173 0.0 3.2 0.00 0.18 0.18 76 1018.0
20260505200430 16 185 0.0 6.4 0.00 0.18 0.18 76 1017.7
20260505195925 17 99 0.0 4.8 0.00 0.18 0.18 76 1017.9
20260505195423 17 163 3.2 3.2 0.00 0.18 0.18 75 1017.7
20260505194920 17 151 0.0 3.2 0.00 0.18 0.18 77 1018.0
20260505194417 16 162 3.2 4.8 0.00 0.18 0.18 77 1018.0
20260505193917 17 128 3.2 3.2 0.00 0.18 0.18 76 1017.7
20260505193415 17 68 3.2 4.8 0.00 0.18 0.18 75 1018.1
20260505192913 17 148 3.2 6.4 0.00 0.18 0.18 73 1018.0
20260505192410 18 180 0.0 3.2 0.00 0.18 0.18 74 1018.1
20260505191908 18 151 0.0 3.2 0.00 0.18 0.18 75 1017.8
20260505191407 17 165 0.0 6.4 0.00 0.18 0.18 78 1018.0
20260505190903 16 162 0.0 6.4 0.00 0.18 0.18 79 1017.9
20260505190358 16 81 0.0 3.2 0.00 0.18 0.18 81 1018.1
20260505185854 17 180 3.2 3.2 0.00 0.18 0.18 80 1018.1
20260505185350 16 109 0.0 1.6 0.00 0.18 0.18 81 1018.1
20260505184847 16 174 0.0 3.2 0.00 0.18 0.18 79 1018.0
20260505184344 15 140 0.0 6.4 0.00 0.18 0.18 80 1018.1
20260505183841 16 183 3.2 4.8 0.00 0.18 0.18 77 1018.1
20260505183338 17 147 0.0 3.2 0.00 0.18 0.18 77 1017.9
20260505182834 17 166 1.6 1.6 0.00 0.18 0.18 76 1018.0
20260505182331 16 170 0.0 3.2 0.00 0.18 0.18 76 1018.2
20260505181828 16 151 1.6 3.2 0.00 0.18 0.18 78 1018.1
20260505181325 16 156 3.2 3.2 0.00 0.18 0.18 78 1017.8
20260505180822 16 106 0.0 4.8 0.00 0.18 0.18 80 1018.1
20260505180318 16 180 0.0 3.2 0.00 0.18 0.18 80 1017.9
20260505175815 16 74 3.2 3.2 0.00 0.18 0.18 80 1017.9
20260505175311 15 148 0.0 3.2 0.00 0.18 0.18 77 1017.7
20260505174808 15 261 0.0 0.0 0.00 0.18 0.18 78 1017.9
20260505174305 15 171 0.0 3.2 0.00 0.18 0.18 77 1017.6
20260505173801 15 180 0.0 1.6 0.00 0.18 0.18 77 1017.5
20260505173258 15 160 0.0 1.6 0.00 0.18 0.18 78 1017.5
20260505172754 15 240 0.0 3.2 0.00 0.18 0.18 79 1017.6
20260505172252 15 172 0.0 1.6 0.00 0.18 0.18 78 1017.5
20260505171747 15 131 0.0 3.2 0.00 0.18 0.18 79 1017.6
20260505171244 15 180 0.0 1.6 0.00 0.18 0.18 81 1017.7
20260505170740 15 262 0.0 4.8 0.00 0.18 0.18 81 1017.5
20260505170238 15 165 0.0 3.2 0.00 0.18 0.18 80 1017.7
20260505165733 15 206 0.0 3.2 0.00 0.18 0.18 81 1017.7
20260505165229 15 166 0.0 3.2 0.00 0.18 0.18 80 1017.6
20260505164725 15 168 0.0 0.0 0.00 0.18 0.18 81 1017.8
20260505164222 15 157 0.0 4.8 0.00 0.18 0.18 79 1017.5
20260505163720 15 166 1.6 3.2 0.00 0.18 0.18 79 1017.5
20260505163218 15 120 0.0 3.2 0.00 0.18 0.18 81 1017.4
20260505162715 15 173 0.0 3.2 0.00 0.18 0.18 82 1017.6
20260505162212 15 157 0.0 0.0 0.00 0.18 0.18 85 1017.6
20260505161709 14 237 3.2 3.2 0.00 0.18 0.18 83 1017.4
20260505161207 14 264 0.0 3.2 0.00 0.18 0.18 84 1017.3
20260505160704 15 142 3.2 3.2 0.00 0.18 0.18 86 1017.2
20260505160202 14 270 0.0 4.8 0.00 0.18 0.18 85 1017.1
20260505153141 13 177 3.2 8.0 0.00 0.18 0.18 90 1017.2
20260505152637 13 180 0.0 3.2 0.00 0.18 0.18 94 1017.1
20260505152133 13 127 0.0 4.8 0.00 0.18 0.18 95 1017.3
20260505151629 12 174 0.0 6.4 0.00 0.18 0.18 95 1017.0
20260505151126 12 166 1.6 4.8 0.00 0.18 0.18 96 1017.1
20260505150622 12 154 1.6 3.2 0.00 0.18 0.18 97 1017.1